Regional Weather Roundup
Issued by NWS

Home | Current Version | Previous Version | Graphics & Text | Print | Product List | Glossary On
Versions: 1 2 3 4 5 6 7 8 9 10 11 12 13 14 15 16 17 18 19 20 21 22 23 24 25 26 27 28 29 30 31 32 33 34 35 36 37 38 39 40 41 42 43 44 45 46 47 48 49 50
000
ASUS43 KTOP 180108
RWRKS

WEATHER ROUNDUP FOR KANSAS
NATIONAL WEATHER SERVICE GOODLAND KS
800 PM CDT THU AUG 17 2017

NOTE:  "FAIR" INDICATES FEW OR NO CLOUDS BELOW 12,000 FEET WITH NO
SIGNIFICANT WEATHER AND/OR OBSTRUCTIONS TO VISIBILITY.

KSZ001>006-013>018-027>032-041>047-180200-
NORTHWEST KANSAS

CITY           SKY/WX    TMP DP  RH WIND       PRES   REMARKS
GOODLAND       CLEAR     79  62  56 S9        29.99F
HAYS           CLEAR     81  56  42 SE10      29.96F
HILL CITY      CLEAR     84  55  36 SE7       29.95F
RUSSELL        CLEAR     81  56  42 S8        29.96F
$$

KSZ061>065-074>080-084>089-180200-
SOUTHWEST KANSAS

CITY           SKY/WX    TMP DP  RH WIND       PRES   REMARKS
DODGE CITY     CLEAR     82  56  40 SE9       30.00F
ELKHART          N/A     72  56  57 W24         N/A
GARDEN CITY    CLOUDY    84  60  44 SE13      29.99F
GREAT BEND     CLEAR     81  57  43 SE8       29.98F
LIBERAL        CLOUDY    81  62  52 SE9       30.01S
PRATT          CLEAR     81  55  40 S10       30.00S
$$

KSZ066>073-081>083-090>101-180200-
SOUTHEAST KANSAS

CITY           SKY/WX    TMP DP  RH WIND       PRES   REMARKS
CHANUTE        CLEAR     79  64  60 CALM      29.97S
COFFEYVILLE    CLEAR     79  68  69 CALM      29.96S
HUTCHINSON     CLEAR     80  59  48 SE5       29.97S
MEDICINE LODGE   N/A     83  58  42 S5        29.99R
NEWTON         CLEAR     77  65  66 SE7       29.99S
PARSONS        CLEAR     74  67  78 CALM      29.98R
WICHITA INTL   PTCLDY    80  62  54 S7        29.97S
WICHITA JABRA  CLEAR     79  64  60 SE3       29.98R
WICHITA MCCONL CLEAR     79  60  51 S7        29.98R
WINFIELD       CLEAR     79  62  56 SE3       29.99R
$$

KSZ007>012-019>026-033>040-048>060-102>105-180200-
NORTHEAST KANSAS

CITY           SKY/WX    TMP DP  RH WIND       PRES   REMARKS
CONCORDIA      CLEAR     77  68  73 SE5       29.94F
EMPORIA        CLEAR     77  66  68 S3        29.96F
LAWRENCE       CLEAR     77  63  61 W3        29.92F
MANHATTAN      CLEAR     77  66  68 SW3       29.94F
MARYSVILLE     CLEAR     81  59  47 W5        29.94S
OLATHE IND     CLEAR     77  62  59 SW6       29.95S
OLATHE EXE     CLEAR     78  61  55 SW5       29.94F
SALINA         CLEAR     84  57  39 S7        29.95S
TOPEKA BILLARD CLEAR     79  61  53 W3        29.93S
TOPEKA FORBES  CLEAR     79  65  62 SW6       29.94F
$$




USA.gov is the U.S. government's official web portal to all federal, state and local government web resources and services.